Regional Weather Roundup
Issued by NWS Jackson, KY

Home | Current Version | Previous Version | Text Only | Print | Product List | Glossary On
Versions: 1 2 3 4 5 6 7 8 9 10 11 12 13 14 15 16 17 18 19 20 21 22 23 24 25 26 27 28 29 30 31 32 33 34 35 36 37 38 39 40 41 42 43 44 45 46 47 48 49 50
000
ASUS43 KJKL 161110
RWRJKL

EAST KENTUCKY HOURLY WEATHER ROUNDUP
NATIONAL WEATHER SERVICE JACKSON KY
600 AM EST TUE JAN 16 2018

NOTE: "FAIR" INDICATES FEW OR NO CLOUDS BELOW 12,000 FEET WITH
NO SIGNIFICANT WEATHER AND/OR OBSTRUCTIONS TO VISIBILITY.

* THESE REPORTS ARE NOT UNDER NWS QUALITY CONTROL AND MAY NOT
  REPORT WEATHER SUCH AS PRECIPITATION AND FOG.

KYZ079-080-083-085-087-088-110-112-115-119-120-161200
...EASTERN KENTUCKY...

CITY           SKY/WX    TMP DP  RH WIND       PRES   REMARKS
JACKSON        FLURRIES  25  20  81 NW10      30.37R WCI  15
LONDON         CLOUDY    24  19  81 NW9       30.40R WCI  14
SOMERSET*      FLURRIES  19  16  86 W9        30.47R WCI   9
MONTICELLO*    FLURRIES  19  16  88 W9        30.48R WCI   8
WILLIAMSBURG*  CLOUDY    27  25  93 NW7       30.40R WCI  19
MIDDLESBORO*   CLOUDY    32  27  82 CALM      30.37S
HARLAN APT*    CLOUDY    32  27  80 CALM      30.34F
PIKE CO APT*   CLOUDY    30  27  90 NW3       30.35R
BIG SANDY APT* LGT RAIN  30  26  86 NW5       30.37R WCI  25
MOREHEAD APT*  LGT SNOW  18  14  86 NW7       30.45R VSB 1   WCI   8
ASHLAND*       LGT SNOW  25  23  92 NW7       30.44R FOG     WCI  17
$$

KYZ035-036-041-042-044-050-067-078-099-161200
...CENTRAL KENTUCKY...

CITY           SKY/WX    TMP DP  RH WIND       PRES   REMARKS
MT STERLING*   LGT SNOW  18  14  86 NW6       30.46S WCI   9
FLEMING/MASON* LGT SNOW  13  10  85 NW8       30.46R WCI   2
DANVILLE*      LGT SNOW  14  12  92 N5        30.47S WCI   6
LEXINGTON      LGT SNOW  14   9  80 W7        30.46S WCI   4
FRANKFORT      LGT SNOW  13   6  74 NW8       30.47S WCI   2
LOUISVILLE     LGT SNOW  10   2  69 W13       30.53S WCI  -5
LEBANON*       LGT SNOW  14  10  85 NW10      30.49R WCI   1
GLASGOW*       LGT SNOW  15  11  85 NW6       30.51S WCI   6
BOWLING GREEN  LGT SNOW  13   9  84 N7        30.56R FOG     WCI   3
$$

KYZ091>093-OHZ055-061-077-WVZ005-015-034-035-042-161200
...SOUTHERN OHIO/WEST VIRGINIA...

CITY           SKY/WX    TMP DP  RH WIND       PRES   REMARKS
COVINGTON      CLOUDY     9   4  80 NW9       30.45R WCI  -4
COLUMBUS       CLOUDY    11   4  73 NW8       30.43R WCI  -1
DAYTON         CLOUDY     3  -1  83 W14       30.44R WCI -15
WILMINGTON     CLOUDY     8   3  80 W12       30.42R WCI  -7
HUNTINGTON     LGT SNOW  28  24  85 W5        30.39S FOG     WCI  23
CHARLESTON     FLURRIES  30  25  81 W3        30.37R
BECKLEY        CLOUDY    32  21  64 CALM      30.27R
BLUEFIELD        N/A     31  19  61 SW7       30.28R WCI  24
LOGAN CO APT*  CLOUDY    30  27  86 CALM      30.33R
$$

VAZ002-007-008-TNZ017-027-036-066-071-161200
...SOUTHWEST VIRGINIA/EAST TENNESSEE...

CITY           SKY/WX    TMP DP  RH WIND       PRES   REMARKS
WISE*          CLOUDY    32  25  74 CALM      30.30R
JONESVILLE*    CLOUDY    27  25  93 CALM      30.36S
ABINGDON*        N/A     26  24  89 CALM      30.32R
BRISTOL        MOCLDY    22  21  96 CALM      30.34R
MORRISTOWN*    CLOUDY    27  25  93 CALM      30.34S
SEVIERVILLE*   SUNNY     25  23  93 CALM      30.37S
KNOXVILLE      MOCLDY    29  24  82 S3        30.36S
LAFOLLETTE*    CLOUDY    32  27  80 CALM      30.40R
OAK RIDGE      CLOUDY    32  26  78 CALM      30.37S
CROSSVILLE     CLOUDY    25  23  92 N6        30.34F FOG     WCI  18
NASHVILLE      FLURRIES  19  13  77 N9        30.53R WCI   8
$$

...KEY TO REMARKS...
VSB - VISIBILITY IN MILES
WCI - WIND CHILL INDEX
HX  - HEAT INDEX

$$



USA.gov is the U.S. government's official web portal to all federal, state and local government web resources and services.